TimeCST,TemperatureF,Dew PointF,Humidity,Sea Level PressureIn,VisibilityMPH,Wind Direction,Wind SpeedMPH,Gust SpeedMPH,PrecipitationIn,Events,Conditions,WindDirDegrees,DateUTC
12:15 AM,67.1,62.6,85,29.87,10.0,SSE,4.6,-,N/A,,Clear,150,2013-02-05 06:15:00
12:35 AM,66.4,62.2,86,29.87,10.0,SSE,4.6,-,N/A,,Clear,160,2013-02-05 06:35:00
12:55 AM,66.2,61.9,86,29.87,10.0,SSE,3.5,-,N/A,,Clear,160,2013-02-05 06:55:00
1:15 AM,65.5,61.7,88,29.86,10.0,SSE,4.6,-,N/A,,Clear,160,2013-02-05 07:15:00
1:35 AM,65.7,62.1,88,29.86,10.0,SSE,3.5,-,N/A,,Clear,150,2013-02-05 07:35:00
1:55 AM,65.5,62.1,89,29.86,10.0,SSE,5.8,-,N/A,,Clear,150,2013-02-05 07:55:00
2:15 AM,65.3,61.9,89,29.86,10.0,SSE,4.6,-,N/A,,Clear,160,2013-02-05 08:15:00
2:35 AM,65.3,61.9,89,29.86,10.0,South,4.6,-,N/A,,Clear,170,2013-02-05 08:35:00
2:55 AM,64.8,61.9,90,29.86,10.0,South,3.5,-,N/A,,Clear,170,2013-02-05 08:55:00
3:15 AM,64.6,61.7,90,29.86,10.0,South,5.8,-,N/A,,Clear,170,2013-02-05 09:15:00
3:35 AM,64.4,61.7,91,29.86,7.0,South,4.6,-,N/A,,Clear,180,2013-02-05 09:35:00
3:55 AM,64.4,61.7,91,29.87,7.0,South,6.9,-,N/A,,Clear,180,2013-02-05 09:55:00
4:15 AM,64.4,61.7,91,29.87,7.0,South,4.6,-,N/A,,Clear,170,2013-02-05 10:15:00
4:35 AM,64.4,61.9,92,29.87,7.0,South,5.8,-,N/A,,Clear,180,2013-02-05 10:35:00
4:55 AM,64.6,62.2,92,29.87,7.0,South,5.8,-,N/A,,Clear,170,2013-02-05 10:55:00
5:15 AM,64.8,62.2,92,29.87,7.0,South,6.9,-,N/A,,Clear,170,2013-02-05 11:15:00
5:35 AM,64.6,62.2,92,29.88,7.0,South,5.8,-,N/A,,Clear,170,2013-02-05 11:35:00
5:55 AM,64.6,62.2,92,29.88,7.0,South,5.8,-,N/A,,Clear,170,2013-02-05 11:55:00
6:15 AM,64.2,61.7,91,29.89,7.0,South,3.5,-,N/A,,Clear,170,2013-02-05 12:15:00
6:35 AM,64.0,61.7,92,29.89,7.0,South,4.6,-,N/A,,Clear,180,2013-02-05 12:35:00
6:55 AM,64.4,61.9,92,29.90,7.0,South,5.8,-,N/A,,Clear,170,2013-02-05 12:55:00
7:15 AM,64.6,62.4,93,29.90,7.0,South,4.6,-,N/A,,Clear,180,2013-02-05 13:15:00
7:35 AM,65.3,62.8,92,29.91,7.0,South,4.6,-,N/A,,Clear,170,2013-02-05 13:35:00
7:55 AM,65.5,63.1,92,29.91,7.0,SSE,3.5,-,N/A,,Clear,150,2013-02-05 13:55:00
8:15 AM,65.7,63.0,91,29.92,7.0,Calm,Calm,-,N/A,,Clear,0,2013-02-05 14:15:00
8:35 AM,65.8,63.0,90,29.93,7.0,Calm,Calm,-,N/A,,Clear,0,2013-02-05 14:35:00
8:55 AM,67.8,64.4,89,29.94,7.0,Calm,Calm,-,N/A,,Clear,0,2013-02-05 14:55:00
9:35 AM,71.6,64.9,79,29.96,10.0,South,8.1,-,N/A,,Clear,180,2013-02-05 15:35:00
9:55 AM,74.1,64.8,72,29.96,10.0,South,4.6,-,N/A,,Clear,180,2013-02-05 15:55:00
10:35 AM,77.5,63.9,63,29.95,10.0,South,8.1,-,N/A,,Clear,190,2013-02-05 16:35:00
10:55 AM,80.6,62.8,54,29.95,10.0,SSW,6.9,-,N/A,,Clear,200,2013-02-05 16:55:00
11:15 AM,81.1,63.0,54,29.95,7.0,South,4.6,-,N/A,,Clear,170,2013-02-05 17:15:00
11:35 AM,83.3,62.1,49,29.94,10.0,South,3.5,-,N/A,,Clear,180,2013-02-05 17:35:00
11:55 AM,84.7,59.0,42,29.93,10.0,South,6.9,-,N/A,,Clear,170,2013-02-05 17:55:00
12:15 PM,84.7,60.3,43,29.92,7.0,South,4.6,-,N/A,,Clear,190,2013-02-05 18:15:00
12:35 PM,86.2,58.8,39,29.91,10.0,South,4.6,-,N/A,,Clear,180,2013-02-05 18:35:00
12:55 PM,87.6,59.4,38,29.90,10.0,SE,5.8,-,N/A,,Clear,140,2013-02-05 18:55:00
1:15 PM,88.0,56.7,34,29.88,10.0,SSE,4.6,-,N/A,,Clear,160,2013-02-05 19:15:00
1:35 PM,88.3,55.0,32,29.88,7.0,SSE,4.6,-,N/A,,Clear,150,2013-02-05 19:35:00
1:55 PM,88.7,56.3,33,29.87,7.0,South,5.8,-,N/A,,Clear,190,2013-02-05 19:55:00
2:15 PM,89.1,56.8,33,29.86,7.0,SE,5.8,-,N/A,,Clear,130,2013-02-05 20:15:00
2:35 PM,89.2,54.1,30,29.85,10.0,ESE,5.8,-,N/A,,Clear,120,2013-02-05 20:35:00
2:55 PM,89.6,55.9,32,29.84,10.0,SSE,4.6,-,N/A,,Clear,160,2013-02-05 20:55:00
3:15 PM,89.8,55.2,31,29.83,7.0,SE,6.9,-,N/A,,Scattered Clouds,140,2013-02-05 21:15:00
3:55 PM,89.8,54.0,29,29.82,10.0,ESE,4.6,-,N/A,,Clear,110,2013-02-05 21:55:00
4:15 PM,89.6,51.1,27,29.82,10.0,ESE,8.1,16.1,N/A,,Clear,120,2013-02-05 22:15:00
4:35 PM,88.3,55.4,32,29.82,10.0,SSE,10.4,17.3,N/A,,Clear,150,2013-02-05 22:35:00
4:55 PM,87.1,58.1,37,29.83,10.0,SSE,11.5,18.4,N/A,,Clear,150,2013-02-05 22:55:00
5:15 PM,84.7,59.4,42,29.83,10.0,SSE,11.5,18.4,N/A,,Clear,150,2013-02-05 23:15:00
5:35 PM,83.1,59.9,45,29.83,10.0,SSE,10.4,17.3,N/A,,Clear,150,2013-02-05 23:35:00
5:55 PM,82.4,58.5,44,29.83,10.0,SE,8.1,17.3,N/A,,Clear,140,2013-02-05 23:55:00
6:15 PM,80.6,60.3,50,29.84,10.0,SE,11.5,-,N/A,,Clear,130,2013-02-06 00:15:00
6:55 PM,77.7,62.1,58,29.86,10.0,SSE,11.5,17.3,N/A,,Clear,150,2013-02-06 00:55:00
7:15 PM,76.5,63.5,64,29.87,10.0,SE,12.7,17.3,N/A,,Clear,140,2013-02-06 01:15:00
7:55 PM,74.5,64.0,70,29.89,10.0,SE,10.4,-,N/A,,Clear,140,2013-02-06 01:55:00
8:15 PM,73.8,65.3,75,29.90,10.0,SE,9.2,-,N/A,,Clear,140,2013-02-06 02:15:00
8:35 PM,73.0,65.3,77,29.91,10.0,SE,9.2,-,N/A,,Clear,140,2013-02-06 02:35:00
8:55 PM,72.5,65.5,79,29.91,10.0,SE,9.2,-,N/A,,Clear,140,2013-02-06 02:55:00
9:15 PM,72.1,65.3,79,29.91,10.0,SE,6.9,-,N/A,,Clear,130,2013-02-06 03:15:00
9:35 PM,71.6,65.5,81,29.91,10.0,SE,8.1,-,N/A,,Clear,130,2013-02-06 03:35:00
9:55 PM,71.2,65.8,83,29.91,10.0,SE,8.1,-,N/A,,Clear,140,2013-02-06 03:55:00
10:15 PM,70.9,65.8,84,29.90,10.0,SE,6.9,-,N/A,,Clear,130,2013-02-06 04:15:00
10:35 PM,71.2,66.4,85,29.90,10.0,ESE,5.8,-,N/A,,Mostly Cloudy,120,2013-02-06 04:35:00
10:55 PM,71.8,67.1,85,29.89,10.0,SE,9.2,-,N/A,,Overcast,140,2013-02-06 04:55:00
11:15 PM,71.8,67.1,85,29.91,10.0,SE,10.4,-,N/A,,Overcast,140,2013-02-06 05:15:00
11:35 PM,71.8,67.1,85,29.90,7.0,SE,9.2,16.1,N/A,,Mostly Cloudy,140,2013-02-06 05:35:00
11:55 PM,72.3,67.3,84,29.90,7.0,SSE,13.8,20.7,N/A,,Overcast,160,2013-02-06 05:55:00